FW9909 Weather Reports


time (UTC)temp
C
wind
direction
speed
KPH
gust
KPH
rain 1hr
cm
rain 24hr
cm
rain mn
cm
humidity
%
barometer
mb
20260901031527 28 301 0.0 3.2 0.00 0.00 0.00 53 1017.1
20260901030526 28 286 1.6 3.2 0.00 0.00 0.00 52 1017.1
20260901025523 29 259 1.6 4.8 0.00 0.00 0.00 51 1017.0
20260901024522 29 272 1.6 4.8 0.00 0.00 0.00 51 1016.9
20260901023520 28 221 3.2 8.0 0.00 0.00 0.00 51 1016.7
20260901022518 28 64 1.6 3.2 0.00 0.00 0.00 52 1016.6
20260901021516 29 43 1.6 3.2 0.00 0.00 0.00 51 1016.4
20260901020534 29 47 0.0 3.2 0.00 0.00 0.00 51 1016.4
20260901015532 30 350 0.0 3.2 0.00 0.00 0.00 51 1016.1
20260901014550 30 28 1.6 3.2 0.00 0.00 0.00 50 1016.0
20260901013528 30 81 0.0 3.2 0.00 0.00 0.00 49 1015.9
20260901012547 30 3 0.0 1.6 0.00 0.00 0.00 49 1015.8
20260901011525 31 38 0.0 3.2 0.00 0.00 0.00 48 1015.6
20260901010523 31 85 0.0 3.2 0.00 0.00 0.00 46 1015.6
20260901005521 31 35 0.0 3.2 0.00 0.00 0.00 45 1015.5
20260901004519 32 15 0.0 3.2 0.00 0.00 0.00 44 1015.5
20260901003517 32 359 0.0 3.2 0.00 0.00 0.00 43 1015.4
20260901002516 33 351 0.0 1.6 0.00 0.00 0.00 42 1015.4
20260901001534 33 309 1.6 4.8 0.00 0.00 0.00 40 1015.3
20260901000552 34 42 1.6 4.8 0.00 0.00 0.00 39 1015.4
20260831235530 35 285 3.2 4.8 0.00 0.00 0.00 38 1015.3
20260831234548 35 293 3.2 6.4 0.00 0.00 0.00 37 1015.4
20260831233526 35 300 1.6 4.8 0.00 0.00 0.00 37 1015.2
20260831232544 36 277 3.2 6.4 0.00 0.00 0.00 35 1015.2
20260831231522 36 268 4.8 9.7 0.00 0.00 0.00 34 1015.3
20260831230621 37 211 3.2 8.0 0.00 0.00 0.00 34 1015.4
20260831225520 37 242 4.8 9.7 0.00 0.00 0.00 32 1015.3
20260831224517 38 284 3.2 6.4 0.00 0.00 0.00 31 1015.3
20260831223535 38 268 3.2 11.3 0.00 0.00 0.00 31 1015.4
20260831222533 38 86 3.2 9.7 0.00 0.00 0.00 31 1015.5
20260831221531 38 263 6.4 9.7 0.00 0.00 0.00 30 1015.5
20260831220529 38 255 4.8 11.3 0.00 0.00 0.00 30 1015.5
20260831215527 38 232 6.4 11.3 0.00 0.00 0.00 29 1015.5
20260831214525 38 266 4.8 9.7 0.00 0.00 0.00 29 1015.5
20260831213524 39 253 3.2 8.0 0.00 0.00 0.00 29 1015.5
20260831212522 38 221 4.8 9.7 0.00 0.00 0.00 29 1015.6
20260831211520 38 277 4.8 8.0 0.00 0.00 0.00 29 1015.8
20260831210518 38 241 4.8 9.7 0.00 0.00 0.00 29 1015.8
20260831205516 38 257 4.8 11.3 0.00 0.00 0.00 29 1016.0
20260831204554 38 228 4.8 9.7 0.00 0.00 0.00 30 1016.1
20260831203532 37 286 3.2 8.0 0.00 0.00 0.00 31 1016.3
20260831202530 38 24 3.2 8.0 0.00 0.00 0.00 29 1016.3
20260831201529 39 278 6.4 12.9 0.00 0.00 0.00 29 1016.3
20260831200547 38 247 4.8 12.9 0.00 0.00 0.00 29 1016.4
20260831195545 39 273 6.4 12.9 0.00 0.00 0.00 29 1016.6
20260831194523 38 242 6.4 11.3 0.00 0.00 0.00 30 1016.7
20260831193541 39 283 6.4 11.3 0.00 0.00 0.00 30 1016.8
20260831192519 38 355 3.2 6.4 0.00 0.00 0.00 32 1016.8
20260831191537 36 338 4.8 6.4 0.00 0.00 0.00 33 1016.9
20260831190516 37 270 6.4 9.7 0.00 0.00 0.00 32 1017.1
20260831185534 37 276 6.4 12.9 0.00 0.00 0.00 31 1017.1
20260831184532 38 254 6.4 12.9 0.00 0.00 0.00 31 1017.4
20260831183530 38 260 8.0 16.1 0.00 0.00 0.00 31 1017.5
20260831182548 38 255 8.0 19.3 0.00 0.00 0.00 32 1017.5
20260831181546 38 280 4.8 11.3 0.00 0.00 0.00 31 1017.6
20260831180525 37 274 4.8 11.3 0.00 0.00 0.00 32 1017.7
20260831175523 37 265 6.4 14.5 0.00 0.00 0.00 34 1017.9
20260831174520 36 279 4.8 11.3 0.00 0.00 0.00 36 1017.9
20260831173539 36 237 6.4 12.9 0.00 0.00 0.00 38 1018.0
20260831172517 36 274 8.0 14.5 0.00 0.00 0.00 39 1018.1
20260831171535 35 260 6.4 14.5 0.00 0.00 0.00 41 1018.3
20260831170553 35 263 4.8 9.7 0.00 0.00 0.00 43 1018.4
20260831165531 34 266 4.8 11.3 0.00 0.00 0.00 44 1018.6
20260831164529 34 266 6.4 12.9 0.00 0.00 0.00 45 1018.6
20260831163527 33 274 4.8 12.9 0.00 0.00 0.00 46 1018.8
20260831162525 33 234 4.8 9.7 0.00 0.00 0.00 47 1018.8
20260831161524 32 265 4.8 11.3 0.00 0.00 0.00 48 1018.8
20260831160522 32 244 4.8 14.5 0.00 0.00 0.00 49 1018.7
20260831155520 32 256 8.0 12.9 0.00 0.00 0.00 50 1018.8
20260831154538 31 254 6.4 11.3 0.00 0.00 0.00 51 1018.8
20260831153516 31 239 4.8 9.7 0.00 0.00 0.00 52 1018.8
20260831152534 31 259 4.8 12.9 0.00 0.00 0.00 52 1018.9
20260831151532 30 248 6.4 12.9 0.00 0.00 0.00 53 1018.8
20260831150530 30 236 4.8 9.7 0.00 0.00 0.00 54 1018.7
20260831145529 30 241 4.8 8.0 0.00 0.00 0.00 55 1018.8
20260831144527 29 265 6.4 14.5 0.00 0.00 0.00 56 1018.7
20260831143605 28 251 6.4 14.5 0.00 0.00 0.00 56 1018.7
20260831142543 28 242 6.4 12.9 0.00 0.00 0.00 57 1018.7
20260831141521 28 264 4.8 8.0 0.00 0.00 0.00 58 1018.7
20260831140519 27 184 3.2 8.0 0.00 0.00 0.00 59 1018.7
20260831135518 27 232 3.2 8.0 0.00 0.00 0.00 60 1018.7
20260831134515 26 196 1.6 4.8 0.00 0.00 0.00 62 1018.6
20260831133534 25 216 3.2 6.4 0.00 0.00 0.00 63 1018.6
20260831132552 25 243 3.2 9.7 0.00 0.00 0.00 65 1018.6
20260831131530 24 250 3.2 9.7 0.00 0.00 0.00 66 1018.4
20260831130528 24 227 3.2 8.0 0.00 0.00 0.00 67 1018.3
20260831125526 23 18 4.8 9.7 0.00 0.00 0.00 69 1018.1
20260831124524 22 122 1.6 6.4 0.00 0.00 0.00 71 1018.0
20260831123523 21 118 3.2 6.4 0.00 0.00 0.00 74 1017.9
20260831122521 21 130 3.2 9.7 0.00 0.00 0.00 74 1017.8
20260831121519 21 77 1.6 4.8 0.00 0.00 0.00 75 1017.6
20260831120517 21 99 3.2 8.0 0.00 0.00 0.00 74 1017.5
20260831115535 21 86 1.6 4.8 0.00 0.00 0.00 74 1017.4
20260831114533 21 148 3.2 8.0 0.00 0.00 0.00 74 1017.2
20260831113531 21 68 1.6 6.4 0.00 0.00 0.00 74 1017.1
20260831112529 21 35 4.8 9.7 0.00 0.00 0.00 74 1017.0
20260831111527 21 75 3.2 8.0 0.00 0.00 0.00 73 1017.0
20260831110526 21 101 3.2 6.4 0.00 0.00 0.00 73 1016.8
20260831105524 21 100 1.6 8.0 0.00 0.00 0.00 72 1016.7
20260831104542 21 33 4.8 11.3 0.00 0.00 0.00 72 1016.7
20260831103520 22 106 4.8 8.0 0.00 0.00 0.00 71 1016.8
20260831102518 22 89 3.2 9.7 0.00 0.00 0.00 71 1016.7
20260831101516 22 88 3.2 6.4 0.00 0.00 0.00 71 1016.7
20260831100534 22 127 4.8 8.0 0.00 0.00 0.00 71 1016.7
20260831095532 22 106 4.8 8.0 0.00 0.00 0.00 71 1016.7
20260831094551 22 34 3.2 6.4 0.00 0.00 0.00 71 1016.7
20260831093529 22 31 4.8 8.0 0.00 0.00 0.00 70 1016.7
20260831092527 22 75 3.2 4.8 0.00 0.00 0.00 70 1016.7
20260831091526 22 79 1.6 4.8 0.00 0.00 0.00 70 1016.7
20260831090543 22 76 1.6 4.8 0.00 0.00 0.00 70 1016.7
20260831085521 22 24 1.6 3.2 0.00 0.00 0.00 70 1016.6
20260831084519 22 105 1.6 4.8 0.00 0.00 0.00 71 1016.6
20260831083518 22 85 1.6 4.8 0.00 0.00 0.00 70 1016.5
20260831082515 22 86 1.6 3.2 0.00 0.00 0.00 70 1016.5
20260831081534 22 90 1.6 3.2 0.00 0.00 0.00 70 1016.4
20260831080532 22 53 1.6 3.2 0.00 0.00 0.00 70 1016.3
20260831075530 22 97 1.6 4.8 0.00 0.00 0.00 69 1016.3
20260831074528 23 35 0.0 3.2 0.00 0.00 0.00 69 1016.3
20260831073526 23 54 1.6 4.8 0.00 0.00 0.00 69 1016.4
20260831072545 23 126 1.6 4.8 0.00 0.00 0.00 68 1016.3
20260831071522 23 250 1.6 6.4 0.00 0.00 0.00 68 1016.4
20260831070521 23 110 1.6 6.4 0.00 0.00 0.00 67 1016.5
20260831065519 23 72 1.6 6.4 0.00 0.00 0.00 67 1016.5
20260831064537 23 65 1.6 4.8 0.00 0.00 0.00 67 1016.5
20260831063535 23 84 0.0 3.2 0.00 0.00 0.00 66 1016.5
20260831062533 24 85 1.6 4.8 0.00 0.00 0.00 65 1016.5
20260831061531 25 101 3.2 6.4 0.00 0.00 0.00 63 1016.6
20260831060530 25 120 1.6 8.0 0.00 0.00 0.00 62 1016.7
20260831055528 25 129 1.6 8.0 0.00 0.00 0.00 62 1016.5
20260831054526 25 132 3.2 6.4 0.00 0.00 0.00 62 1016.6
20260831053524 25 152 1.6 3.2 0.00 0.00 0.00 63 1016.5
20260831052542 25 326 1.6 3.2 0.00 0.00 0.00 63 1016.6
20260831051520 25 302 0.0 3.2 0.00 0.00 0.00 62 1016.5
20260831050518 25 124 0.0 3.2 0.00 0.00 0.00 61 1016.5
20260831045516 26 215 1.6 4.8 0.00 0.00 0.00 60 1016.3
20260831044534 26 251 1.6 3.2 0.00 0.00 0.00 60 1016.1
20260831043552 26 175 1.6 4.8 0.00 0.00 0.00 60 1016.0
20260831042530 26 251 1.6 3.2 0.00 0.00 0.00 59 1015.8
20260831041529 26 263 3.2 6.4 0.00 0.00 0.00 58 1015.9
20260831040527 27 261 3.2 6.4 0.00 0.00 0.00 57 1015.8
20260831035525 27 238 3.2 11.3 0.00 0.00 0.00 57 1015.8
20260831034523 27 271 3.2 8.0 0.00 0.00 0.00 57 1015.8
20260831033541 27 115 1.6 6.4 0.00 0.00 0.00 56 1015.7
20260831032519 28 268 3.2 11.3 0.00 0.00 0.00 55 1015.6